Volver al catálogo

FENGYUN 1C DEB

ActivoPO
NORAD 30699·DEBRIS·🇨🇳 China

Lanzado May 10, 1999 desde Taiyuan Satellite Launch Center

Loading…

Próximos Pases (próximas 24 horas)

TLE

ActualizadoSource: Space-Track

Época: Sep 14, 2026, 09:40 UTC

1 30699U 99025ARH 26257.40342653  .00004400  00000-0  11263-2 0  9994
2 30699  99.3295  50.5262 0004005 147.8775 212.2661 14.50959272 16072

Sigue FENGYUN 1C DEB en tiempo real con AllMySat

Download on the App Store